User: anonymous   Login
Location: Unspecified
(0.0000°N, 0.0000°E)
Time: 18:50:12
(UTC+00:00)
Language:

SMS 2 - Orbit

View from above orbital plane
View from above orbital plane
View from above satellite
View from above satellite

Ground track
Ground track

The orbit data is extracted from the following two-line orbital elements,

1  7648U 75011A   17145.37520329 -.00000263 +00000-0 +00000-0 0  9990
2  7648 012.8102 321.9954 0011624 180.3287 180.1116 00.99510992102743
Epoch (UTC): 25 May 2017 09:00:17
Eccentricity: 0.0011624
inclination: 12.8102°
perigee height: 35951 km
apogee height: 36050 km
right ascension of ascending node: 321.9954°
argument of perigee: 180.3287°
revolutions per day: 0.99510992
mean anomaly at epoch: 180.1116°
orbit number at epoch: 10274

The dashed part of the orbit path shows where the satellite is in the earth's shadow,  

DLR